Regional Weather Roundup
Issued by NWS

Home | Current Version | Previous Version | Text Only | Print | Product List | Glossary Off
Versions: 1 2 3 4 5 6 7 8 9 10 11 12 13 14 15 16 17 18 19 20 21 22 23 24 25 26 27 28 29 30 31 32 33 34 35 36 37 38 39 40 41 42 43 44 45 46 47 48 49 50

000
ASUS43 KLSX 302059
RWRMO

WEATHER SUMMARY FOR MISSOURI
NATIONAL WEATHER SERVICE SPRINGFIELD MO
400 PM CDT TUE SEP 30 2014

NOTE: "FAIR" INDICATES FEW OR NO CLOUDS BELOW 12,000 FEET WITH NO
       SIGNIFICANT WEATHER AND/OR OBSTRUCTIONS TO VISIBILITY.
       CURRENT SKY AND/OR WEATHER CONDITIONS ARE NOT AVAILABLE FOR
       CHILLICOTHE AND FARMINGTON.

MOZ001>031-035>038-043-044-053-054-302200-
...NORTHERN AND WESTERN MISSOURI...

CITY           SKY/WX    TMP DP  RH WIND       PRES   REMARKS
KANSAS CTY INT MOSUNNY   83  59  44 S14G21    29.81F
KANSAS C DTWN  SUNNY     84  56  38 S16G29    29.80F
LEE`S SUMMIT   MOSUNNY   83  56  39 S9G20     29.82F
ST JOSEPH      PTSUNNY   84  58  40 S14       29.79F
CHILLICOTHE      N/A     83  58  42 S6        29.83F
KIRKSVILLE     SUNNY     74  62  66 E10       29.89F

$$
MOZ066>068-077>081-088>096-101>105-302200-
...SOUTHWEST MISSOURI...

CITY           SKY/WX    TMP DP  RH WIND       PRES   REMARKS
SPRINGFIELD    SUNNY     83  53  35 S8        29.87F
JOPLIN         MOSUNNY   82  58  43 S13       29.84F

$$
MOZ032>034-039>042-045>050-055>058-069>072-302200-
...CENTRAL MISSOURI...

CITY           SKY/WX    TMP DP  RH WIND       PRES   REMARKS
COLUMBIA       PTSUNNY   84  55  36 VRB3      29.86F
JEFFERSON CITY SUNNY     87  51  28 S6        29.84F
ROLLA          CLOUDY    82  52  35 SE6       29.86F
SEDALIA        MOSUNNY   84  57  39 SW14      29.85F
OSAGE BEACH    MOSUNNY   82  57  42 S5        29.86F

$$
MOZ051-052-059>065-302200-
...EAST CENTRAL MISSOURI...

CITY           SKY/WX    TMP DP  RH WIND       PRES   REMARKS
ST LOUIS INTL  PTSUNNY   85  56  37 E6        29.89F
SPIRIT OF STL  PTSUNNY  N/A N/A N/A CALM      29.86F
ST CHARLES     SUNNY     82  56  40 NE7       29.87F

$$
MOZ072>076-082>087-097>100-106>115-302200-
...SOUTH CENTRAL AND SOUTHEAST MISSOURI...

CITY           SKY/WX    TMP DP  RH WIND       PRES   REMARKS
CAPE GIRARDEAU SUNNY     86  53  32 N5        29.88F
FARMINGTON     MOSUNNY   84  52  32 SW9       29.91F
POPLAR BLUFF   SUNNY     86  49  27 SE5       29.87F
WEST PLAINS    SUNNY     81  51  35 MISG      29.91F

$$



USA.gov is the U.S. government's official web portal to all federal, state and local government web resources and services.